This is the latest recevied weather packets stored in our database for station/object KB3GVC-13. If no packets are shown the sender has not sent any weather packets the latest 10 day(s).
| Time | Temp. | Humidity | Pressure | Rain* | Wind** | Luminosity | Snow |
|---|---|---|---|---|---|---|---|
| 1777830602 | 13.89° C | 36% | 1015.7 hPa | 0 mm | - | - | - |
| 1777830300 | 13.89° C | 35% | 1015.7 hPa | 0 mm | - | - | - |
| 1777829995 | 13.33° C | 35% | 1015.8 hPa | 0 mm | - | - | - |
| 1777829691 | 13.33° C | 36% | 1015.9 hPa | 0 mm | - | - | - |
| 1777829388 | 12.78° C | 36% | 1016 hPa | 0 mm | - | - | - |
| 1777829086 | 13.33° C | 37% | 1015.5 hPa | 0 mm | - | - | - |
| 1777828782 | 13.33° C | 35% | 1015.8 hPa | 0 mm | - | - | - |
| 1777828479 | 13.89° C | 37% | 1016.2 hPa | 0 mm | - | - | - |
| 1777828177 | 13.33° C | 38% | 1015.9 hPa | 0 mm | - | - | - |
| 1777827872 | 13.33° C | 38% | 1015.8 hPa | 0 mm | - | - | - |
| 1777827570 | 12.78° C | 40% | 1015.9 hPa | 0 mm | - | - | - |
| 1777827267 | 13.33° C | 37% | 1016.1 hPa | 0 mm | - | - | - |
| 1777826963 | 12.78° C | 39% | 1016.1 hPa | 0 mm | - | - | - |
| 1777826661 | 12.78° C | 40% | 1016 hPa | 0 mm | - | - | - |
| 1777826357 | 12.22° C | 39% | 1016.3 hPa | 0 mm | - | - | - |
| 1777826055 | 12.78° C | 38% | 1016.2 hPa | 0 mm | - | - | - |
| 1777825751 | 12.78° C | 38% | 1016.1 hPa | 0 mm | - | - | - |
| 1777825449 | 12.22° C | 39% | 1016.2 hPa | 0 mm | - | - | - |
| 1777825146 | 11.67° C | 40% | 1016.2 hPa | 0 mm | - | - | - |
| 1777824842 | 12.78° C | 42% | 1016.4 hPa | 0 mm | - | - | - |
| 1777824539 | 11.67° C | 43% | 1016.4 hPa | 0 mm | - | - | - |
| 1777824235 | 12.22° C | 42% | 1016.2 hPa | 0 mm | - | - | - |
| 1777823930 | 12.78° C | 45% | 1016.2 hPa | 0 mm | - | - | - |
| 1777823629 | 11.67° C | 43% | 1016.3 hPa | 0 mm | - | - | - |
| 1777823325 | 11.67° C | 45% | 1016.2 hPa | 0 mm | - | - | - |
* Rain latest hour (hover to see other rain measurements)
** Current wind speed in m/s (hover to see current wind gust speed)